Timeline UpdatesTrip UpdatesNews PostsPvt PostsTravel TipsAdmin PostsConv PostsFollowed PostsChat RequestsBlog PostsPNR Posts

Disclaimer
Search
 
 
Sat Apr 19, 2014 09:54:09 ISTHomeTrainsΣChainsAtlasPNRForumGalleryNewsFAQTripsMembersLoginFeedback
No Recent News for this Train
Other Trains in the News **new
Latest...
⇐ Return Journey: Train# 53043

53044/Rajgir - Howrah Passenger (UnReserved)

Nov 04 2013 (6:59AM)
Change Departure Station:
Change Arrival Station:
Post a Train Travel TipPost a Train Travel Tip **new
Post a Comment/Question/Picture/VideoPost a Comment/Question/Picture/Video
Pantry/Catering
✕ NO Pantry Car
✕ NO Catering
RSA - Rake Sharing
Rake/Coach Composition
Loco
HWH WDM 3A/3D
News    PNR    Forum    Time-Table    Availability    Fare Chart    Map    Arr/Dep History    Trips    Gallery    ΣChains    X/O    Timeline    
Travel Time: 16h 12m    48 halts    Distance: 480 km    Avg Speed: 29 km/hr
Type: Passenger
Zone: ER/Eastern
Departs @ 19:58 (Avg 2h 7m late)
Platform# 1
SMTWTFS
Jamalpur Junction/JMP 
Arrives @ 12:10 +1 night (Avg 3h 9m late)
Platform# 1
SMTWTFS
Kolkata Howrah Junction/HWH 

48 halts. 101 intermediate Stations between Jamalpur Junction and Kolkata Howrah Junction

Show ALL intermediate Stations  Show Old Time-Table

#CodeStation NameX/OArrivesAvgDepartsAvgHaltPFDay#KmSpeedElevZoneAddress
1RGDRajgir (3)  -12:40+1:47--1-176.73871mECRRajgir, Bihar
2NLDNalanda (2)  12:58+1:5012:59+1:551m--1-165.44063mECRNational Highway 82, Bihar
3BEHSBihar Sharif (2)  13:18+1:5813:23+2:005m--1-152.93656mECR06112-222306, Bihar
4WENAWena (2)  13:46+1:5713:47+1:581m--1-138.9947mECRWena, Bihar
5HRTHarnaut (3)X  14:21+1:4014:28+1:397m--1-133.85349mECRHarnaut, Bihar
6BKPBakhtiyarpur Junction (5)XO  14:40+1:3915:10+2:1630m--1-123.16851mECRPatna, Bihar
7ATLAthmal Gola (2)  15:18+2:2215:19+2:231m--1-114.05052mECRPatna, Bihar
8BARHBarh (3)X  15:30+2:1915:32+2:282m--1-104.97849mECRBarh, Bihar
9PHKPunarakh  15:40+2:3615:41+2:361m--1-94.52951mECRPunarakh, Bihar
10MORMorXO  15:58+2:3416:27+2:1229m--1-86.24846mECRMor, Bihar
11MKAMokama Junction (3)  16:36+2:0716:40+2:074m--1-79.05648mECRPatna, Bihar
12HTZHathidah Junction (2)X  16:49+2:1316:51+2:142m11-70.64650mECRMusahari, Bihar
13RDUMRampur DumraO  16:56+2:1916:57+2:301m--1-66.83746mECRNational Highway 80, Bihar
14BRYABarhiyaX  17:06+2:3017:08+2:312m--1-61.22247mECRBarahiya, Bihar
15MKBMankatha  17:34+2:2417:40+2:246m--1-51.83047mECRNational Highway 80, Bihar
16LKRLuckeesarai Junction (2)X  17:51+2:2017:53+2:202m--1-46.21252mECRLakhisarai, Bihar
17KIULKiul Junction (5)X  18:00+2:1318:25+2:0025m--1-44.83653mECRDist. Lakhisarai, Bihar
18DNREDhanauri  18:35+2:1218:37+2:122m--1-38.84948mERNational Highway 80, Bihar
19URENUrenX  18:43+2:1318:45+2:142m--1-33.95845mERUren, Bihar
20KJHKajra (2)  18:50+2:1518:51+2:161m--1-29.16250mERLakhisarai District, Bihar
21AHAAbhaipurX  18:58+2:1918:59+2:191m--1-21.84852mERAbhaipur, Bihar
22MSDNMasudan  19:04+2:2119:05+2:211m--1-17.86045mERMasudan, Bihar
23DRHDharhara (2)  19:11+2:2119:12+2:231m--1-11.81855mERDharhara, Bihar
24DRTPDasharathpur  19:30+2:1419:31+2:171m--1-6.43248mERDharhara, Bihar
25JMP»Jamalpur Junction (4)»  19:43+2:0319:58+2:0715m110.04259mERJamalpur 06344-243101, Bihar
26RPURRatanpur  20:07+2:2220:08+2:221m--16.35846mERRatanpur Railway Station, Bihar
27BUPBariarpur (3)  20:13+2:2320:14+2:261m--111.11142mERMunger, Bihar
28KPRDKalyanpur Road  20:21+2:2520:22+2:251m--112.41040mERMunger, Bihar
29GNNAGangani  20:29+2:2520:30+2:251m--113.613338mERGangania, Bihar
30SGGSultanGanj  20:37+2:0720:40+2:073m--129.15042mERSultanganj, Bihar
31AKNAkbarnagar  20:52+2:2620:53+2:261m--139.14439mERTilakpur, Bihar
32NATNathnagar  21:01+2:2721:02+2:281m--149.34048mERBhagalpur, Bihar
33BGPBhagalpur Junction (6)X  21:09+2:2121:19+2:2710m--154.05049mERBhagalpur, Bihar
34SBOSabaur (3)  21:28+2:4021:29+2:451m--161.64442mERSabour, Bihar
35LMMLailakh Mamalkha (2)  21:38+2:4621:39+2:481m--168.25836mERLailakh Mamlkha, Bihar
36GGAGhoga (2)  21:45+2:5221:47+2:582m--174.06942mERGhoga, Bihar
37EKCEkchari  21:52+3:0121:53+3:021m--179.75237mERNational Highway 80, Bihar
38CLGKahalgaon (2)  21:58+3:0222:00+3:102m2184.14944mERBhagalpur, Bihar
39SVRPShivanarayanpurX  22:14+3:2022:38+3:0924m--195.54847mERShivanarayanpur, Bihar
40PPTPirpainti (2)  22:49+3:1022:51+3:212m--1104.45653mERBhagalpur, Bihar
41MZCMirza CheukiX  23:00+3:2323:06+3:296m--1112.92638mERBihar, Bihar
42SBGSahibganj Junction (3)X  23:41+3:1923:59+3:2818m11128.05438mERSahibganj, Jharkhand
43SLJSakrigali JunctionX  00:08+3:4000:09+3:471m--2136.05045mERSakrigali, Jharkhand
44MJPMaharajpur  00:16+3:5000:17+3:561m--2141.97134mERMoharajpur, Jharkhand
45TLJTaljhari  00:27+4:0900:28+4:121m--2153.86538mERTaljhari, Jharkhand
46KXEKalian Chak  00:33+4:1400:34+4:161m--2159.28145mERKalian Chak, Jharkhand
47TPHTinpahar Junction (3)  00:39+4:1100:42+4:143m22165.95745mERBamangawan, Jharkhand
48BKLEBakudi (3)  00:51+4:1900:52+4:251m--2174.52665mERBakudi, Jharkhand
49BHWBarharwa Junction (3)X  01:10+4:1701:20+4:2210m22182.44436mERBarharwa, Jharkhand
50GMANGumani (3)X  01:30+4:2701:31+4:311m--2189.86731mERGumani, Jharkhand
51KLPKotalpukur (3)  01:37+4:3201:39+4:322m--2196.43840mERKotalpukur, Jharkhand
52TBBTilbhita (3)XO  01:51+4:3001:55+4:364m--2204.01731mERTilbhita, Jharkhand
53PKRPakur (2)X  02:10+4:2902:11+4:331m22208.24237mERDist:- Pakur, Jharkhand
54RJGRajgram (3)  02:26+4:3502:27+4:371m22218.87032mERRajgram, West Bengal
55MRRMurarai (3)X  02:37+4:3002:38+4:271m--2230.47036mERMurarai, West Bengal
56NHTNalhati Junction (4)X  02:52+4:2902:54+4:382m22246.72948mERNalhati, West Bengal
57RPHRampurhat (3)  03:23+4:3503:43+4:3020m--2260.86741mERDIST - Birbhum, West Bengal
58SNTSainthia Junction (4)  04:08+4:5104:13+4:535m42288.84758mERDist - Birbhum, West Bengal
59AMPAhmadpur Junction (3)O  04:30+4:4304:35+4:405m--2302.02846mERDist - Birbhum, West Bengal
60PNEPrantik (3)  05:08+4:3005:09+4:301m--2317.25148mERPrantik, West Bengal
61BHPBolpur Shantiniketan (3)  05:14+4:3205:19+4:315m--2321.56059mERBolpur, West Bengal
62BDHBhedia (2)  05:27+4:2905:28+4:301m--2329.55541mERDist - Bardhaman, West Bengal
63GKHGuskara (2)X  05:40+4:3105:41+4:321m--2340.46041mERDist - Bardhaman, West Bengal
64BPSBanpas (3)  05:51+4:2505:52+4:251m--2350.51146mERDist - Bardhaman, West Bengal
65KANKhana Junction (5)X  06:45+4:1806:46+4:191m--2360.25642mERDist - Bardhaman, West Bengal
66BWNBarddhaman Junction (8)XO  07:00+4:2307:20+4:2320m--2373.25034mERDist - Barddhaman, West Bengal
67MYMMemari (4)  07:50+4:2908:00+4:2510m--2398.32225mERMemari, West Bengal
68MUGMagra (3)  09:38+3:3309:43+3:285m--2433.7715mERMagra, West Bengal
69BDCBandel Junction (7)  10:44+2:4710:50+2:516m--2440.53214mERdist - HOOGHLY, West Bengal
70CNSChuchura (3)  10:57+2:4710:58+2:471m--2444.33615mERDist - HOOGHLY - 712102, West Bengal
71CGRChandan Nagar (3)  11:03+2:4711:05+2:492m--2447.35316mERDist -HOOGHLY - 712136, West Bengal
72SHESeoraphuli Junction (6)  11:17+2:5111:19+2:522m--2457.93013mERBaidyabati, West Bengal
73SRPSerampore (4)X  11:24+2:5011:28+2:494m--2460.42811mERdist - hooghly, West Bengal
74HWH•Kolkata Howrah Junction (23)•  12:10+3:09-12480.1-10mERHowrah 711101, West Bengal
Scroll to Top
Scroll to Bottom